CW4113 Weather Reports


time (UTC)temp
C
wind
direction
speed
KPH
gust
KPH
rain 1hr
cm
rain 24hr
cm
rain mn
cm
humidity
%
barometer
mb
20260506211806 20 265 9.7 19.3 0.00 0.46 0.46 76 1007.3
20260506211305 20 241 8.0 19.3 0.00 0.46 0.46 76 1007.0
20260506210806 20 278 8.0 19.3 0.00 0.46 0.46 76 1007.1
20260506210305 20 229 9.7 22.5 0.00 0.46 0.46 75 1006.9
20260506205306 20 286 6.4 16.1 0.00 0.46 0.46 78 1006.9
20260506204805 20 246 3.2 11.3 0.00 0.46 0.46 81 1006.9
20260506204305 19 241 8.0 16.1 0.00 0.46 0.46 81 1006.9
20260506202806 18 222 11.3 19.3 0.00 0.46 0.46 83 1007.0
20260506201806 18 205 4.8 16.1 0.00 0.46 0.46 83 1007.0
20260506201305 18 248 9.7 16.1 0.00 0.46 0.46 84 1007.0
20260506200805 18 221 8.0 12.9 0.00 0.46 0.46 83 1007.1
20260506200305 18 236 4.8 11.3 0.00 0.46 0.46 84 1007.1
20260506195805 18 227 4.8 11.3 0.00 0.46 0.46 83 1007.2
20260506195306 18 234 4.8 14.5 0.00 0.46 0.46 84 1007.2
20260506194805 18 213 3.2 8.0 0.00 0.46 0.46 83 1007.2
20260506194305 18 213 4.8 12.9 0.00 0.46 0.46 84 1007.2
20260506193806 18 240 4.8 19.3 0.00 0.46 0.46 83 1007.2
20260506193306 18 242 4.8 14.5 0.00 0.46 0.46 84 1007.2
20260506192806 18 237 8.0 14.5 0.00 0.46 0.46 83 1007.2
20260506192306 18 270 8.0 20.9 0.00 0.46 0.46 83 1007.2
20260506191806 18 235 14.5 20.9 0.00 0.46 0.46 83 1007.2
20260506191305 18 219 6.4 14.5 0.00 0.46 0.46 86 1007.3
20260506190805 17 237 3.2 14.5 0.00 0.46 0.46 86 1007.3
20260506190306 17 238 9.7 19.3 0.00 0.46 0.46 86 1007.5
20260506185307 17 249 9.7 19.3 0.00 0.46 0.46 86 1007.4
20260506184805 17 239 6.4 20.9 0.00 0.46 0.46 86 1007.5
20260506184306 17 203 11.3 27.4 0.00 0.46 0.46 87 1007.5
20260506183805 17 188 8.0 19.3 0.00 0.46 0.46 88 1007.5
20260506183305 17 207 12.9 25.7 0.00 0.46 0.46 88 1007.6
20260506182805 17 255 12.9 19.3 0.00 0.46 0.46 88 1007.7
20260506182307 16 247 8.0 19.3 0.00 0.46 0.46 88 1007.7
20260506181805 16 242 9.7 19.3 0.00 0.46 0.46 88 1007.8
20260506181305 16 204 9.7 24.1 0.00 0.46 0.46 88 1007.9
20260506180805 16 222 11.3 27.4 0.00 0.46 0.46 87 1007.9
20260506180305 16 225 4.8 25.7 0.00 0.46 0.46 87 1008.0
20260506175806 16 238 9.7 19.3 0.00 0.46 0.46 87 1008.0
20260506175306 16 216 4.8 27.4 0.00 0.46 0.46 88 1008.1
20260506174805 16 200 14.5 29.0 0.00 0.46 0.46 88 1008.0
20260506174305 16 196 6.4 19.3 0.00 0.46 0.46 88 1008.0
20260506173306 16 212 9.7 19.3 0.00 0.46 0.46 88 1008.0
20260506172805 16 233 6.4 20.9 0.00 0.46 0.46 88 1007.9
20260506172307 16 178 8.0 19.3 0.00 0.46 0.46 88 1007.9
20260506171805 16 259 8.0 16.1 0.00 0.46 0.46 88 1007.9
20260506171305 16 192 9.7 27.4 0.00 0.46 0.46 88 1007.9
20260506170805 16 186 8.0 19.3 0.00 0.46 0.46 88 1007.9
20260506165805 16 222 6.4 19.3 0.03 0.46 0.46 88 1007.9
20260506164806 16 185 9.7 19.3 0.03 0.46 0.46 88 1008.1
20260506164305 16 204 8.0 19.3 0.05 0.46 0.46 88 1008.0
20260506163805 16 245 4.8 19.3 0.08 0.46 0.46 88 1008.2
20260506163305 16 224 11.3 19.3 0.08 0.46 0.46 88 1008.2
20260506162805 16 148 8.0 19.3 0.08 0.46 0.46 88 1008.2
20260506161805 16 209 9.7 22.5 0.10 0.46 0.46 88 1008.1
20260506161305 16 200 12.9 33.8 0.13 0.46 0.46 88 1008.1
20260506160805 16 185 14.5 33.8 0.13 0.46 0.46 88 1008.0
20260506160305 16 214 6.4 19.3 0.15 0.46 0.46 89 1007.8
20260506155805 16 159 14.5 33.8 0.13 0.43 0.43 89 1007.7
20260506155306 16 127 11.3 24.1 0.13 0.43 0.43 89 1007.4
20260506154805 16 149 9.7 25.7 0.15 0.43 0.43 88 1007.8
20260506154305 16 170 11.3 25.7 0.13 0.41 0.41 88 1008.1
20260506153805 16 159 9.7 19.3 0.10 0.38 0.38 88 1008.3
20260506152306 16 154 6.4 12.9 0.13 0.36 0.36 88 1008.8
20260506151305 16 199 4.8 16.1 0.15 0.33 0.33 88 1008.9
20260506150805 16 193 4.8 19.3 0.18 0.33 0.33 88 1008.9
20260506150305 16 219 9.7 22.5 0.18 0.30 0.30 88 1008.8
20260506145805 16 204 6.4 19.3 0.18 0.30 0.30 87 1009.0
20260506145306 16 199 9.7 19.3 0.18 0.30 0.30 87 1009.0
20260506144805 16 186 11.3 19.3 0.15 0.28 0.28 87 1008.9
20260506144305 16 171 9.7 22.5 0.15 0.28 0.28 87 1008.7
20260506143805 16 176 9.7 16.1 0.18 0.28 0.28 87 1008.7
20260506142805 16 167 8.0 22.5 0.15 0.25 0.25 87 1008.6
20260506142306 16 199 8.0 19.3 0.13 0.23 0.23 87 1008.6
20260506141805 16 204 6.4 14.5 0.13 0.20 0.20 87 1008.6
20260506141305 16 158 4.8 11.3 0.10 0.18 0.18 87 1008.5
20260506140805 16 134 9.7 14.5 0.10 0.15 0.15 86 1008.6
20260506140305 16 166 1.6 25.7 0.08 0.13 0.13 86 1008.6
20260506135805 16 201 4.8 14.5 0.08 0.13 0.13 86 1008.7
20260506135306 16 219 6.4 14.5 0.08 0.13 0.13 86 1008.7
20260506134805 16 173 4.8 19.3 0.08 0.13 0.13 86 1008.8
20260506134305 16 194 3.2 14.5 0.10 0.13 0.13 86 1008.7
20260506133805 16 233 4.8 16.1 0.08 0.10 0.10 85 1008.7
20260506133305 16 157 8.0 19.3 0.08 0.10 0.10 85 1008.8
20260506132805 16 155 4.8 12.9 0.08 0.10 0.10 84 1008.7
20260506132307 16 227 9.7 20.9 0.08 0.10 0.10 84 1008.7
20260506130305 16 209 4.8 12.9 0.05 0.05 0.05 83 1009.0
20260506125805 16 186 8.0 16.1 0.05 0.05 0.05 83 1009.0
20260506125306 16 227 9.7 19.3 0.05 0.05 0.05 82 1009.0
20260506124805 16 208 9.7 19.3 0.05 0.05 0.05 82 1009.0
20260506124305 16 168 4.8 16.1 0.03 0.03 0.03 82 1009.0
20260506123805 17 204 9.7 19.3 0.03 0.03 0.03 81 1009.1
20260506123304 17 206 11.3 19.3 0.03 0.03 0.03 81 1009.1
20260506122805 17 193 9.7 20.9 0.03 0.03 0.03 81 1009.1
20260506122306 17 231 4.8 14.5 0.03 0.03 0.03 81 1009.1
20260506121804 17 227 6.4 11.3 0.03 0.03 0.03 81 1009.0
20260506121305 17 160 9.7 19.3 0.03 0.03 0.03 80 1008.9
20260506120804 17 222 8.0 19.3 0.00 0.00 0.00 79 1009.0
20260506115805 17 214 11.3 25.7 0.00 0.00 0.00 78 1008.7
20260506114805 17 220 9.7 24.1 0.00 0.00 0.00 76 1008.7
20260506114304 17 201 8.0 24.1 0.00 0.00 0.00 76 1008.7
20260506113804 17 228 8.0 22.5 0.00 0.00 0.00 75 1008.7
20260506113305 17 178 11.3 22.5 0.00 0.00 0.00 74 1008.7
20260506112805 17 218 11.3 22.5 0.00 0.00 0.00 73 1008.6
20260506112306 17 202 8.0 19.3 0.00 0.00 0.00 73 1008.5
20260506111805 18 197 8.0 19.3 0.00 0.00 0.00 73 1008.5
20260506111304 18 182 9.7 27.4 0.00 0.00 0.00 73 1008.4
20260506110805 18 193 9.7 22.5 0.00 0.00 0.00 72 1008.4
20260506105305 18 160 9.7 27.4 0.00 0.00 0.00 72 1008.4
20260506104804 18 207 14.5 32.2 0.00 0.00 0.00 72 1008.4
20260506103304 18 198 9.7 27.4 0.00 0.00 0.00 71 1008.0
20260506102805 18 183 11.3 27.4 0.00 0.00 0.00 71 1008.1
20260506102306 18 185 8.0 20.9 0.00 0.00 0.00 71 1008.1
20260506101804 18 214 14.5 25.7 0.00 0.00 0.00 70 1008.0
20260506101304 18 168 12.9 24.1 0.00 0.00 0.00 70 1007.9
20260506100804 18 187 12.9 25.7 0.00 0.00 0.00 70 1007.9
20260506100305 18 146 12.9 22.5 0.00 0.00 0.00 70 1007.8
20260506095306 18 203 9.7 20.9 0.00 0.00 0.00 70 1007.8
20260506094805 18 210 9.7 24.1 0.00 0.00 0.00 69 1007.9
20260506094304 18 162 11.3 27.4 0.00 0.00 0.00 69 1008.0
20260506093804 18 189 9.7 25.7 0.00 0.00 0.00 69 1008.0
20260506093304 18 202 9.7 27.4 0.00 0.00 0.00 68 1008.0
20260506092804 18 190 8.0 22.5 0.00 0.00 0.00 68 1008.0
20260506091805 18 203 11.3 24.1 0.00 0.00 0.00 68 1008.0
20260506091304 18 165 8.0 20.9 0.00 0.00 0.00 68 1008.0
20260506090805 18 169 11.3 24.1 0.00 0.00 0.00 67 1008.1
20260506090304 18 181 14.5 32.2 0.00 0.00 0.00 67 1008.1
20260506085804 18 185 12.9 20.9 0.00 0.00 0.00 66 1008.1
20260506085306 18 158 14.5 25.7 0.00 0.00 0.00 66 1008.2
20260506084805 18 211 9.7 19.3 0.00 0.00 0.00 66 1008.2
20260506084304 18 184 8.0 19.3 0.00 0.00 0.00 65 1008.3
20260506083304 18 182 9.7 20.9 0.00 0.00 0.00 64 1008.3
20260506082804 19 222 6.4 19.3 0.00 0.00 0.00 64 1008.3
20260506082305 19 172 14.5 22.5 0.00 0.00 0.00 64 1008.3
20260506081805 19 219 11.3 22.5 0.00 0.00 0.00 63 1008.3
20260506081305 19 218 9.7 19.3 0.00 0.00 0.00 63 1008.3
20260506080804 19 204 9.7 16.1 0.00 0.00 0.00 63 1008.3
20260506080304 19 240 8.0 16.1 0.00 0.00 0.00 62 1008.3
20260506073304 20 177 14.5 24.1 0.00 0.00 0.00 60 1008.4
20260506072305 20 178 9.7 20.9 0.00 0.00 0.00 60 1008.5
20260506071304 20 163 11.3 22.5 0.00 0.00 0.00 60 1008.5
20260506070804 20 185 8.0 20.9 0.00 0.00 0.00 59 1008.6
20260506070304 20 202 11.3 20.9 0.00 0.00 0.00 59 1008.7
20260506062306 20 212 11.3 19.3 0.00 0.00 0.00 56 1009.0
20260506061805 20 161 9.7 19.3 0.00 0.00 0.00 56 1009.0
20260506061304 20 205 8.0 20.9 0.00 0.00 0.00 56 1009.0
20260506060804 20 231 6.4 22.5 0.00 0.00 0.00 56 1009.0
20260506060304 20 196 11.3 19.3 0.00 0.00 0.00 56 1009.0
20260506051304 20 181 11.3 20.9 0.00 0.00 0.00 54 1009.4
20260506050804 20 184 9.7 20.9 0.00 0.00 0.00 54 1009.3
20260506050304 20 200 8.0 22.5 0.00 0.00 0.00 54 1009.4
20260506044304 20 167 4.8 20.9 0.00 0.00 0.00 53 1009.5
20260506043804 20 168 8.0 22.5 0.00 0.00 0.00 53 1009.6
20260506043305 20 185 11.3 20.9 0.00 0.00 0.00 52 1009.5
20260506042305 20 165 11.3 20.9 0.00 0.00 0.00 52 1009.6
20260506041804 20 185 11.3 19.3 0.00 0.00 0.00 51 1009.6
20260506041304 20 185 9.7 24.1 0.00 0.00 0.00 51 1009.6
20260506040817 20 148 8.0 19.3 0.00 0.00 0.00 51 1009.6
20260506040304 20 180 11.3 20.9 0.00 0.00 0.00 51 1009.6
20260506035804 20 167 4.8 12.9 0.00 0.00 0.00 51 1009.6
20260506035306 20 155 8.0 16.1 0.00 0.00 0.00 50 1009.6
20260506034304 20 184 4.8 16.1 0.00 0.00 0.00 50 1009.5
20260506033304 20 192 4.8 16.1 0.00 0.00 0.00 51 1009.5
20260506032804 20 198 3.2 16.1 0.00 0.00 0.00 50 1009.5
20260506032305 20 185 8.0 12.9 0.00 0.00 0.00 50 1009.5
20260506031804 20 118 3.2 19.3 0.00 0.00 0.00 49 1009.5
20260506031304 20 148 4.8 12.9 0.00 0.00 0.00 50 1009.5
20260506030804 21 165 8.0 16.1 0.00 0.00 0.00 50 1009.5
20260506030304 21 150 4.8 16.1 0.00 0.00 0.00 49 1009.5
20260506025804 21 190 4.8 16.1 0.00 0.00 0.00 49 1009.5
20260506025305 21 192 6.4 19.3 0.00 0.00 0.00 49 1009.5
20260506024804 21 155 6.4 14.5 0.00 0.00 0.00 49 1009.5
20260506024304 21 163 8.0 19.3 0.00 0.00 0.00 49 1009.5
20260506023804 21 177 8.0 16.1 0.00 0.00 0.00 48 1009.5
20260506023303 21 156 6.4 16.1 0.00 0.00 0.00 48 1009.5
20260506022306 21 126 9.7 19.3 0.00 0.00 0.00 48 1009.5
20260506021804 21 179 4.8 19.3 0.00 0.00 0.00 47 1009.5
20260506021304 21 138 6.4 14.5 0.00 0.00 0.00 46 1009.5
20260506020804 21 164 8.0 19.3 0.00 0.00 0.00 46 1009.6
20260506020304 21 173 8.0 20.9 0.00 0.00 0.00 46 1009.6
20260506014806 21 153 11.3 19.3 0.00 0.00 0.00 45 1009.3
20260506014306 21 172 6.4 12.9 0.00 0.00 0.00 45 1009.3
20260506013806 21 150 6.4 16.1 0.00 0.00 0.00 45 1009.3
20260506013306 22 199 4.8 16.1 0.00 0.00 0.00 44 1009.3
20260506012805 22 157 3.2 12.9 0.00 0.00 0.00 44 1009.3
20260506012308 22 156 8.0 19.3 0.00 0.00 0.00 43 1009.2
20260506011306 22 181 8.0 19.3 0.00 0.00 0.00 42 1009.1
20260506010806 22 171 6.4 14.5 0.00 0.00 0.00 42 1009.0
20260506010306 22 150 8.0 16.1 0.00 0.00 0.00 42 1008.9
20260506005805 22 144 8.0 16.1 0.00 0.00 0.00 41 1008.8
20260506005306 22 187 4.8 14.5 0.00 0.00 0.00 41 1008.8
20260506004806 23 118 6.4 19.3 0.00 0.00 0.00 40 1008.8
20260506004306 23 132 8.0 14.5 0.00 0.00 0.00 40 1008.7
20260506003806 23 183 9.7 19.3 0.00 0.00 0.00 40 1008.7
20260506003305 23 166 3.2 16.1 0.00 0.00 0.00 40 1008.6
20260506002806 23 162 8.0 14.5 0.00 0.00 0.00 39 1008.6
20260506001806 23 172 8.0 20.9 0.00 0.00 0.00 40 1008.5
20260506001306 23 204 3.2 19.3 0.00 0.00 0.00 39 1008.5
20260506000806 23 165 9.7 16.1 0.00 0.00 0.00 38 1008.4
20260506000306 24 191 6.4 19.3 0.00 0.00 0.00 38 1008.4
20260505233806 24 166 8.0 19.3 0.00 0.00 0.00 38 1008.1
20260505233306 24 152 14.5 25.7 0.00 0.00 0.00 38 1008.1
20260505231805 25 201 11.3 22.5 0.00 0.00 0.00 38 1008.1
20260505231306 25 173 8.0 14.5 0.00 0.00 0.00 38 1008.0
20260505230805 25 228 8.0 22.5 0.00 0.00 0.00 38 1008.0
20260505230306 25 173 9.7 25.7 0.00 0.00 0.00 38 1008.0
20260505225806 25 166 9.7 24.1 0.00 0.00 0.00 38 1008.0
20260505225306 25 241 6.4 29.0 0.00 0.00 0.00 38 1008.0
20260505224806 25 182 6.4 16.1 0.00 0.00 0.00 37 1008.1
20260505224306 25 154 4.8 19.3 0.00 0.00 0.00 37 1008.1
20260505223306 25 173 12.9 20.9 0.00 0.00 0.00 36 1008.2
20260505222805 25 198 8.0 16.1 0.00 0.00 0.00 38 1008.1
20260505222306 25 205 14.5 25.7 0.00 0.00 0.00 37 1008.0
20260505220806 26 171 9.7 29.0 0.00 0.00 0.00 36 1008.1
20260505220306 26 216 17.7 32.2 0.00 0.00 0.00 35 1008.0
20260505215806 26 165 19.3 41.8 0.00 0.00 0.00 36 1008.0
20260505214805 26 203 11.3 32.2 0.00 0.00 0.00 36 1007.9
20260505214305 26 205 14.5 32.2 0.00 0.00 0.00 37 1007.9
20260505213805 26 172 16.1 27.4 0.00 0.00 0.00 36 1007.9
20260505213306 26 197 16.1 27.4 0.00 0.00 0.00 36 1007.8
20260505212806 26 184 14.5 32.2 0.00 0.00 0.00 36 1007.8
20260505212306 27 170 12.9 32.2 0.00 0.00 0.00 35 1007.9